^^
Station Historical Data
 
Daily Summary for May 25, 2017 Units:  Metric    English   Both
« Previous Day
Next Day »
Daily Weekly Monthly Yearly Custom
  Current: High: Low: Average:
Temperature: 13.8 °C 18.4 °C 13.8 °C 15.6 °C
Dew Point: 11.2 °C 13.9 °C 10.7 °C 12.6 °C
Humidity: 84% 94% 71% 83%
Wind Speed: 0km/h 9.7km/h 0km/h 1.1km/h
Wind Gust: 0km/h 14.5km/h - -
WindCalm - - West
Pressure: 1012.8 hPa 1014.4 hPa 1012.1 hPa -
Precipitation: 0 mm      
Historical Graphs
 
 
Tabular Data for May 25, 2017
Time Temperature Dew Point Pressure Wind Wind Speed Wind Gust Humidity Rainfall Rate (Hourly) solar Conditions
00:00 15.2 °C 13.9 °C 1013.1 hPa SW 1.6 km/h 11.3 km/h 92% 0 mm WeatherDisplay:10.37 W/m2 RA
00:10 15 °C 13.7 °C 1013.1 hPa Calm   12.9 km/h 92% 0 mm WeatherDisplay:10.37 W/m2 CLR
00:20 14.9 °C 13.6 °C 1013.4 hPa Calm   3.2 km/h 92% 0 mm WeatherDisplay:10.37 W/m2 CLR
00:30 14.9 °C 13.6 °C 1013.4 hPa Calm   3.2 km/h 92% 0 mm WeatherDisplay:10.37 W/m2 CLR
00:40 14.9 °C 13.6 °C 1013.4 hPa Calm     92% 0 mm WeatherDisplay:10.37 W/m2 CLR
00:50 14.9 °C 13.6 °C 1013.4 hPa Calm     92% 0 mm WeatherDisplay:10.37 W/m2 CLR
01:00 14.9 °C 13.6 °C 1013.1 hPa Calm     92% 0 mm WeatherDisplay:10.37 W/m2 CLR
01:10 14.8 °C 13.3 °C 1013.1 hPa Calm     91% 0 mm WeatherDisplay:10.37 W/m2 CLR
01:20 14.8 °C 13.3 °C 1013.1 hPa Calm   4.8 km/h 91% 0 mm WeatherDisplay:10.37 W/m2 CLR
01:30 14.8 °C 13.3 °C 1013.1 hPa Calm     91% 0 mm WeatherDisplay:10.37 W/m2 CLR
01:40 14.7 °C 13.2 °C 1012.8 hPa Calm     91% 0 mm WeatherDisplay:10.37 W/m2 CLR
01:50 14.7 °C 13.2 °C 1013.1 hPa Calm     91% 0 mm WeatherDisplay:10.37 W/m2 CLR
02:00 14.7 °C 13.2 °C 1012.8 hPa Calm     91% 0 mm WeatherDisplay:10.37 W/m2 CLR
02:10 14.6 °C 13.2 °C 1013.1 hPa Calm     91% 0 mm WeatherDisplay:10.37 W/m2 CLR
02:20 14.6 °C 13.2 °C 1012.8 hPa Calm     91% 0 mm WeatherDisplay:10.37 W/m2 CLR
02:30 14.6 °C 13.1 °C 1012.8 hPa Calm     91% 0 mm WeatherDisplay:10.37 W/m2 CLR
02:40 14.5 °C 13.2 °C 1012.8 hPa Calm     92% 0 mm WeatherDisplay:10.37 W/m2 CLR
02:50 14.5 °C 13.2 °C 1012.8 hPa Calm     92% 0 mm WeatherDisplay:10.37 W/m2 CLR
03:00 14.5 °C 13.2 °C 1012.8 hPa Calm     92% 0 mm WeatherDisplay:10.37 W/m2 CLR
03:10 14.4 °C 13.1 °C 1012.8 hPa Calm     92% 0 mm WeatherDisplay:10.37 W/m2 CLR
03:20 14.5 °C 13.2 °C 1012.8 hPa Calm     92% 0 mm WeatherDisplay:10.37 W/m2 CLR
03:30 14.5 °C 13.2 °C 1012.4 hPa Calm     92% 0 mm WeatherDisplay:10.37 W/m2 CLR
03:40 14.5 °C 13.2 °C 1012.4 hPa Calm     92% 0 mm WeatherDisplay:10.37 W/m2 CLR
03:50 14.5 °C 13.2 °C 1012.4 hPa Calm     92% 0 mm WeatherDisplay:10.37 W/m2 CLR
04:00 14.5 °C 13.2 °C 1012.4 hPa Calm     92% 0 mm WeatherDisplay:10.37 W/m2 CLR
04:10 14.5 °C 13.2 °C 1012.4 hPa Calm     92% 0 mm WeatherDisplay:10.37 W/m2 CLR
04:20 14.4 °C 13.1 °C 1012.4 hPa Calm     92% 0 mm WeatherDisplay:10.37 W/m2 CLR
04:30 14.4 °C 13.1 °C 1012.8 hPa Calm     92% 0 mm WeatherDisplay:10.37 W/m2 CLR
04:40 14.4 °C 13.3 °C 1012.4 hPa Calm     93% 0 mm WeatherDisplay:10.37 W/m2 CLR
04:50 14.4 °C 13.3 °C 1012.4 hPa Calm     93% 0 mm WeatherDisplay:10.37 W/m2 CLR
05:00 14.4 °C 13.3 °C 1012.4 hPa Calm     93% 0 mm WeatherDisplay:10.37 W/m2 CLR
05:10 14.3 °C 13.2 °C 1012.8 hPa Calm     93% 0 mm WeatherDisplay:10.37 W/m2 CLR
05:20 14.3 °C 13.2 °C 1013.1 hPa Calm     93% 0 mm WeatherDisplay:10.37 W/m2 CLR
05:30 14.3 °C 13.2 °C 1012.8 hPa Calm     93% 0 mm WeatherDisplay:10.37 W/m2 CLR
05:40 14.3 °C 13.2 °C 1012.8 hPa SSW 1.6 km/h 8 km/h 93% 0 mm WeatherDisplay:10.37 W/m2 CLR
05:50 14.3 °C 13.2 °C 1012.8 hPa Calm     93% 0 mm WeatherDisplay:10.37 W/m2 CLR
06:00 14.3 °C 13.2 °C 1012.8 hPa Calm     93% 0 mm WeatherDisplay:10.37 W/m2 CLR
06:10 14.3 °C 13.2 °C 1012.8 hPa Calm     93% 0 mm WeatherDisplay:10.37 W/m2 CLR
06:20 14.3 °C 13.2 °C 1013.1 hPa Calm     93% 0 mm WeatherDisplay:10.37 W/m2 CLR
06:30 14.3 °C 13.2 °C 1013.1 hPa Calm     93% 0 mm WeatherDisplay:10.37 W/m2 CLR
06:40 14.3 °C 13.4 °C 1013.4 hPa Calm     94% 0 mm WeatherDisplay:10.37 W/m2 CLR
06:50 14.4 °C 13.4 °C 1012.8 hPa Calm     94% 0 mm WeatherDisplay:10.37 W/m2 CLR
07:00 14.4 °C 13.4 °C 1013.1 hPa Calm     94% 0 mm WeatherDisplay:10.37 W/m2 CLR
07:10 14.4 °C 13.4 °C 1013.1 hPa Calm     94% 0 mm WeatherDisplay:10.37 W/m2 CLR
07:20 14.4 °C 13.4 °C 1013.1 hPa Calm     94% 0 mm WeatherDisplay:10.37 W/m2 CLR
07:30 14.4 °C 13.3 °C 1013.1 hPa Calm     93% 0 mm WeatherDisplay:10.37 W/m2 CLR
07:40 14.4 °C 13.3 °C 1013.4 hPa Calm     93% 0 mm WeatherDisplay:10.37 W/m2 CLR
07:50 14.4 °C 13.3 °C 1013.8 hPa Calm     93% 0 mm WeatherDisplay:10.37 W/m2 CLR
08:00 14.4 °C 13.1 °C 1013.8 hPa Calm     92% 0 mm WeatherDisplay:10.37 W/m2 CLR
08:10 14.4 °C 12.9 °C 1013.8 hPa Calm     91% 0 mm WeatherDisplay:10.37 W/m2 CLR
08:20 14.4 °C 12.9 °C 1014.1 hPa Calm     91% 0 mm WeatherDisplay:10.37 W/m2 CLR
08:30 14.4 °C 12.6 °C 1013.8 hPa Calm   3.2 km/h 89% 0 mm WeatherDisplay:10.37 W/m2 CLR
08:40 14.4 °C 12.4 °C 1013.8 hPa WSW 1.6 km/h 9.7 km/h 88% 0 mm WeatherDisplay:10.37 W/m2 CLR
08:50 14.4 °C 12.3 °C 1014.1 hPa West 3.2 km/h 11.3 km/h 87% 0 mm WeatherDisplay:10.37 W/m2 CLR
09:00 14.6 °C 12.3 °C 1013.8 hPa WSW 8 km/h 11.3 km/h 86% 0 mm WeatherDisplay:10.37 W/m2 CLR
09:10 14.9 °C 12.4 °C 1013.8 hPa Calm   8 km/h 85% 0 mm WeatherDisplay:10.37 W/m2 CLR
09:20 15.3 °C 12.8 °C 1014.1 hPa West 1.6 km/h 6.4 km/h 85% 0 mm WeatherDisplay:10.37 W/m2 CLR
09:30 15.8 °C 12.9 °C 1014.1 hPa WSW 1.6 km/h 9.7 km/h 83% 0 mm WeatherDisplay:10.37 W/m2 CLR
09:40 16.2 °C 12.9 °C 1014.1 hPa West 1.6 km/h 9.7 km/h 81% 0 mm WeatherDisplay:10.37 W/m2 CLR
10:00 16.6 °C 12.9 °C 1014.1 hPa WNW 1.6 km/h 9.7 km/h 79% 0 mm WeatherDisplay:10.37 W/m2 CLR
10:10 16.7 °C 13.1 °C 1014.1 hPa WSW 9.7 km/h 11.3 km/h 79% 0 mm WeatherDisplay:10.37 W/m2 CLR
10:20 16.9 °C 13.2 °C 1014.1 hPa WSW 1.6 km/h 11.3 km/h 79% 0 mm WeatherDisplay:10.37 W/m2 CLR
10:30 17.1 °C 13.1 °C 1014.1 hPa WSW 4.8 km/h 14.5 km/h 77% 0 mm WeatherDisplay:10.37 W/m2 CLR
10:40 17.3 °C 13.2 °C 1014.4 hPa WSW 8 km/h 11.3 km/h 77% 0 mm WeatherDisplay:10.37 W/m2 CLR
10:50 17.3 °C 13 °C 1014.4 hPa WSW 4.8 km/h 12.9 km/h 76% 0 mm WeatherDisplay:10.37 W/m2 CLR
11:00 17.1 °C 13.1 °C 1014.4 hPa WSW 1.6 km/h 9.7 km/h 77% 0 mm WeatherDisplay:10.37 W/m2 CLR
11:10 16.9 °C 12.8 °C 1014.4 hPa West 3.2 km/h 12.9 km/h 77% 0 mm WeatherDisplay:10.37 W/m2 CLR
11:20 16.7 °C 12.7 °C 1014.1 hPa West 1.6 km/h 11.3 km/h 77% 0 mm WeatherDisplay:10.37 W/m2 CLR
11:30 16.6 °C 12.6 °C 1014.1 hPa West 4.8 km/h 12.9 km/h 77% 0 mm WeatherDisplay:10.37 W/m2 CLR
11:40 16.7 °C 12.8 °C 1014.1 hPa Calm   12.9 km/h 78% 0 mm WeatherDisplay:10.37 W/m2 CLR
11:50 16.9 °C 13.1 °C 1014.4 hPa Calm   11.3 km/h 78% 0 mm WeatherDisplay:10.37 W/m2 CLR
12:10 17.1 °C 13.2 °C 1014.1 hPa West 4.8 km/h 14.5 km/h 78% 0 mm WeatherDisplay:10.37 W/m2 CLR
12:20 17.1 °C 13.1 °C 1014.1 hPa West 4.8 km/h 12.9 km/h 77% 0 mm WeatherDisplay:10.37 W/m2 CLR
12:30 17.1 °C 13.1 °C 1014.1 hPa WSW 8 km/h 14.5 km/h 77% 0 mm WeatherDisplay:10.37 W/m2 CLR
12:40 17.3 °C 13.2 °C 1014.1 hPa West 4.8 km/h 12.9 km/h 77% 0 mm WeatherDisplay:10.37 W/m2 CLR
12:50 17.4 °C 13.1 °C 1013.8 hPa Calm   11.3 km/h 76% 0 mm WeatherDisplay:10.37 W/m2 CLR
13:00 17.6 °C 13.1 °C 1013.4 hPa Calm   9.7 km/h 75% 0 mm WeatherDisplay:10.37 W/m2 CLR
13:10 17.8 °C 13.1 °C 1013.8 hPa West 1.6 km/h 9.7 km/h 74% 0 mm WeatherDisplay:10.37 W/m2 CLR
13:20 18.1 °C 13.2 °C 1013.4 hPa West 4.8 km/h 11.3 km/h 73% 0 mm WeatherDisplay:10.37 W/m2 CLR
13:30 18.3 °C 13.1 °C 1013.4 hPa Calm     72% 0 mm WeatherDisplay:10.37 W/m2 CLR
13:40 18.4 °C 13.3 °C 1013.4 hPa Calm   3.2 km/h 72% 0 mm WeatherDisplay:10.37 W/m2 CLR
13:50 18.3 °C 13 °C 1013.1 hPa Calm   9.7 km/h 71% 0 mm WeatherDisplay:10.37 W/m2 CLR
14:00 18.1 °C 12.9 °C 1013.1 hPa WNW 8 km/h 11.3 km/h 72% 0 mm WeatherDisplay:10.37 W/m2 CLR
14:10 17.8 °C 12.9 °C 1013.4 hPa West 1.6 km/h 12.9 km/h 73% 0 mm WeatherDisplay:10.37 W/m2 CLR
14:20 17.8 °C 13.1 °C 1013.1 hPa West 1.6 km/h 11.3 km/h 74% 0 mm WeatherDisplay:10.37 W/m2 CLR
14:30 18.2 °C 13.2 °C 1013.1 hPa WNW 3.2 km/h 11.3 km/h 73% 0 mm WeatherDisplay:10.37 W/m2 CLR
14:40 18.4 °C 13.3 °C 1013.1 hPa West 4.8 km/h 9.7 km/h 72% 0 mm WeatherDisplay:10.37 W/m2 CLR
14:50 18.4 °C 13.3 °C 1012.8 hPa West 4.8 km/h 11.3 km/h 72% 0 mm WeatherDisplay:10.37 W/m2 CLR
15:00 18.4 °C 13.1 °C 1013.1 hPa West 3.2 km/h 11.3 km/h 71% 0 mm WeatherDisplay:10.37 W/m2 CLR
15:10 18.4 °C 13.1 °C 1012.8 hPa West 3.2 km/h 12.9 km/h 71% 0 mm WeatherDisplay:10.37 W/m2 CLR
15:20 18.3 °C 12.9 °C 1012.4 hPa Calm   11.3 km/h 71% 0 mm WeatherDisplay:10.37 W/m2 CLR
15:30 18.2 °C 12.8 °C 1012.4 hPa West 1.6 km/h 8 km/h 71% 0 mm WeatherDisplay:10.37 W/m2 CLR
15:40 17.9 °C 12.6 °C 1012.8 hPa West 1.6 km/h 12.9 km/h 71% 0 mm WeatherDisplay:10.37 W/m2 CLR
15:50 17.6 °C 12.5 °C 1012.8 hPa West 4.8 km/h 9.7 km/h 72% 0 mm WeatherDisplay:10.37 W/m2 CLR
16:00 17.5 °C 12.4 °C 1012.4 hPa WNW 3.2 km/h 8 km/h 72% 0 mm WeatherDisplay:10.37 W/m2 CLR
16:10 17.4 °C 12.5 °C 1012.4 hPa WNW 3.2 km/h 11.3 km/h 73% 0 mm WeatherDisplay:10.37 W/m2 CLR
16:20 17.3 °C 12.4 °C 1012.4 hPa West 1.6 km/h 9.7 km/h 73% 0 mm WeatherDisplay:10.37 W/m2 CLR
16:30 17.3 °C 12.6 °C 1012.4 hPa West 8 km/h 14.5 km/h 74% 0 mm WeatherDisplay:10.37 W/m2 CLR
16:40 17.1 °C 12.2 °C 1012.8 hPa Calm   11.3 km/h 73% 0 mm WeatherDisplay:10.37 W/m2 CLR
16:50 17.2 °C 12.5 °C 1012.4 hPa West 3.2 km/h 11.3 km/h 74% 0 mm WeatherDisplay:10.37 W/m2 CLR
17:00 17.2 °C 12.5 °C 1012.4 hPa Calm   11.3 km/h 74% 0 mm WeatherDisplay:10.37 W/m2 CLR
17:10 17.1 °C 12.4 °C 1012.4 hPa Calm   11.3 km/h 74% 0 mm WeatherDisplay:10.37 W/m2 CLR
17:20 17.1 °C 12.4 °C 1012.1 hPa NW 1.6 km/h 9.7 km/h 74% 0 mm WeatherDisplay:10.37 W/m2 CLR
17:30 16.9 °C 12.3 °C 1012.4 hPa Calm   1.6 km/h 74% 0 mm WeatherDisplay:10.37 W/m2 CLR
17:40 16.9 °C 12.2 °C 1012.1 hPa Calm     74% 0 mm WeatherDisplay:10.37 W/m2 CLR
17:50 16.9 °C 12.2 °C 1012.4 hPa Calm     74% 0 mm WeatherDisplay:10.37 W/m2 CLR
18:00 16.6 °C 11.9 °C 1012.8 hPa Calm   11.3 km/h 74% 0 mm WeatherDisplay:10.37 W/m2 CLR
18:10 16.5 °C 11.8 °C 1012.4 hPa Calm     74% 0 mm WeatherDisplay:10.37 W/m2 CLR
18:20 16.4 °C 11.8 °C 1012.4 hPa Calm   1.6 km/h 74% 0 mm WeatherDisplay:10.37 W/m2 CLR
18:30 16.4 °C 11.8 °C 1012.4 hPa Calm     74% 0 mm WeatherDisplay:10.37 W/m2 CLR
18:40 16.3 °C 11.8 °C 1012.4 hPa Calm     75% 0 mm WeatherDisplay:10.37 W/m2 CLR
18:50 16.1 °C 11.7 °C 1012.8 hPa Calm     75% 0 mm WeatherDisplay:10.37 W/m2 CLR
19:00 15.9 °C 11.5 °C 1012.8 hPa Calm     75% 0 mm WeatherDisplay:10.37 W/m2 CLR
19:10 15.9 °C 11.7 °C 1012.4 hPa Calm     76% 0 mm WeatherDisplay:10.37 W/m2 CLR
19:20 15.6 °C 11.4 °C 1013.1 hPa Calm     76% 0 mm WeatherDisplay:10.37 W/m2 CLR
19:30 15.5 °C 11.3 °C 1012.8 hPa Calm     76% 0 mm WeatherDisplay:10.37 W/m2 CLR
19:40 15.3 °C 11.1 °C 1012.4 hPa Calm     76% 0 mm WeatherDisplay:10.37 W/m2 CLR
19:50 15.1 °C 10.9 °C 1012.8 hPa Calm     76% 0 mm WeatherDisplay:10.37 W/m2 CLR
20:00 14.9 °C 10.7 °C 1012.8 hPa Calm     76% 0 mm WeatherDisplay:10.37 W/m2 CLR
20:10 14.9 °C 10.9 °C 1012.4 hPa Calm     77% 0 mm WeatherDisplay:10.37 W/m2 CLR
20:20 14.9 °C 10.9 °C 1012.8 hPa Calm     77% 0 mm WeatherDisplay:10.37 W/m2 CLR
20:30 14.9 °C 11.1 °C 1012.8 hPa Calm     78% 0 mm WeatherDisplay:10.37 W/m2 CLR
20:40 14.7 °C 11.1 °C 1012.8 hPa Calm     79% 0 mm WeatherDisplay:10.37 W/m2 CLR
20:50 14.7 °C 11.1 °C 1013.1 hPa Calm     79% 0 mm WeatherDisplay:10.37 W/m2 CLR
21:00 14.6 °C 11 °C 1013.1 hPa Calm     79% 0 mm WeatherDisplay:10.37 W/m2 CLR
21:10 14.6 °C 10.9 °C 1012.8 hPa Calm     79% 0 mm WeatherDisplay:10.37 W/m2 CLR
21:20 14.5 °C 11.1 °C 1013.1 hPa Calm     80% 0 mm WeatherDisplay:10.37 W/m2 CLR
21:30 14.4 °C 11 °C 1013.1 hPa Calm     80% 0 mm WeatherDisplay:10.37 W/m2 CLR
21:40 14.4 °C 11 °C 1013.1 hPa Calm     80% 0 mm WeatherDisplay:10.37 W/m2 CLR
21:50 14.3 °C 10.9 °C 1013.1 hPa Calm     80% 0 mm WeatherDisplay:10.37 W/m2 CLR
22:00 14.3 °C 10.9 °C 1013.1 hPa Calm     80% 0 mm WeatherDisplay:10.37 W/m2 CLR
22:10 14.2 °C 10.8 °C 1013.1 hPa Calm     80% 0 mm WeatherDisplay:10.37 W/m2 CLR
22:20 14.2 °C 11 °C 1013.1 hPa Calm     81% 0 mm WeatherDisplay:10.37 W/m2 CLR
22:30 14.2 °C 11.1 °C 1012.8 hPa Calm     82% 0 mm WeatherDisplay:10.37 W/m2 CLR
22:40 14.1 °C 11.1 °C 1012.8 hPa Calm     82% 0 mm WeatherDisplay:10.37 W/m2 CLR
22:50 14.1 °C 11.1 °C 1012.8 hPa Calm     82% 0 mm WeatherDisplay:10.37 W/m2 CLR
23:00 14.1 °C 11.3 °C 1012.8 hPa Calm     83% 0 mm WeatherDisplay:10.37 W/m2 CLR
23:10 13.9 °C 11.1 °C 1013.1 hPa Calm     83% 0 mm WeatherDisplay:10.37 W/m2 CLR
23:20 13.9 °C 11.1 °C 1013.1 hPa Calm     83% 0 mm WeatherDisplay:10.37 W/m2 CLR
23:30 13.9 °C 11.2 °C 1012.8 hPa Calm     84% 0 mm WeatherDisplay:10.37 W/m2 CLR
23:40 13.9 °C 11.2 °C 1013.1 hPa Calm     84% 0 mm WeatherDisplay:10.37 W/m2 CLR
23:50 13.8 °C 11.2 °C 1012.8 hPa Calm     84% 0 mm WeatherDisplay:10.37 W/m2 CLR
Knjazevac, Serbia
Compliments of Weather Underground - 1.5 mb